SCP
0 0 0 0 0 0 0 0 0 0 0 0 0 0 0 0 0 0 0 0 0 0 0 0 0 0 0 0 0 0 0 0 0 0 0 0 0 0
0 0 0 0 0 0 0 0 0 0 0 0 0 0 0 0 0 0 0 0 0 0 0 0 0 0 0 0 0 0 0 0 0 0 0 0 0 0
0 0 0 0 0 0 0 0 0 0 0 0 0 0 0 0 0 0 0 0 0 0 0 0 0 0 0 0 0 0 0 0 0 0 0 0 0 0
0 0 0 0 0 0 0 0 0 0 0 0 0 0 0 0 0 0 0 0 0 0 0 0 0 0 0 0 0 0 0 0 0 0 0 0 0 -0
0 0 0 0 0 0 0 0 0 0 0 0 0 0 0 0 0 0 0 0 0 0 0 0 0 0 0 0 0 0 0 0 0 0 0 0 0 0
0 0 0 0 0 0 0 0 0 0 0 0 0 0 0 0 0 0 0 0 0 0 0 0 0 0 0 0 0 0 0 0 0 0 0 0 0 0
0 0 0 0 0 0 0 0 0 0 0 0 0 0 0 0 0 0 0 0 0 0 0 0 0 0 0 0 0 0 0 0 0 0 0 0 0 0
0 0 0 0 0 0 0 0 0 0 0 0 0 0 0 0 0 0 0 0 0 0 0 0 0 0 0 0 0 0 0 0 0 0 0 0 0 0
0 0 0 0 0 0 0 0 0 0 0 0 0 0 0 0 0 0 0 0 0 0 0 0 0 0 0 0 0 0 0 0 0 0 0 0 0 0
0 0 0 0 0 0 0 0 0 0 0 0 0 0 0 0 0 0 0 0 0 0 0 0 0 0 0 0 0 0 -0 -0 0 0 0 0 0 0
0 0 0 0 0 -0 -0 -0 0 0 0 0 0 0 0 0 0 0 0 0 0 0 0 0 0 0 0 0 0 -0 -0 -0 -0 0 0 0 0 0
0 0 0 0 0 -0 -0 -0 0 0 0 0 0 0 0 0 0 0 0 0 0 0 0 0 0 0 0 0 0 0 -0 -0 -0 0 0 0 0 0
0 0 0 0 0 0 0 0 0 0 0 0 0 0 0 0 0 0 0 0 0 0 0 0 0 0 0 0 0 0 0 -0 0 0 0 0 0 0
0 0 0 0 0 0 0 0 0 0 0 0 0 0 0 0 0 0 0 0 0 0 0 0 0 0 0 0 0 0 0 0 -0 0 0 0 0 0
0 0 0 0 0 0 0 0 0 0 0 0 0 0 0 0 0 0 0 0 0 0 0 0 0 0 0 0 0 0 0 0 -0 0 0 0 0 0
0 0 0 0 0 0 0 0 0 0 0 0 0 0 0 0 0 0 0 0 0 0 0 0 0 0 0 0 0 0 0 0 -0 -0 0 0 0 0
0 0 0 0 0 0 0 0 0 0 0 0 0 0 0 0 0 0 0 0 0 0 0 0 0 0 0 0 0 0 0 0 -0 0 0 0 0 0
0 0 0 0 0 0 0 0 0 0 0 0 0 0 0 0 0 0 0 0 0 0 0 0 0 0 0 0 0 0 0 0 0 0 0 0 0 0
0 0 0 0 0 0 0 0 0 0 0 0 0 0 0 0 0 0 0 0 0 0 0 0 0 0 0 0 0 0 0 0 0 0 0 0 0 0
0 0 0 0 0 0 0 0 0 0 0 0 0 0 0 0 0 0 0 0 0 0 0 0 0 0 0 0 0 0 0 0 0 0 0 0 0 0
0 0 0 0 0 0 0 0 0 0 0 0 0 0 -0 0 0 0 0 0 0 0 0 0 0 0 0 0 0 0 0 0 0 0 0 0 0 0
-0 -0 0 0 0 0 0 0 0 0 0 0 0 0 -0 -0 0 0 0 0 0 0 0 0 0 0 0 0 0 0 0 0 0 0 0 0 0 0
-0 -0 0 0 0 0 0 0 0 0 0 0 0 0 -0 -0 -0 0 0 0 0 0 0 0 0 0 0 0 0 0 0 0 0 0 0 0 0 0
Wind_Speed_500mb
18 22 23 22 27 31 31 32 34 32 53 33 60 60 61 46 36 37 38 45 53 64 64 62 54 41 40 45 42 39 36 32 31 32 31 33 34 31
20 23 25 28 31 33 36 40 37 31 28 56 60 57 44 35 33 42 49 53 54 50 53 51 35 34 42 42 37 28 23 25 27 29 34 37 36 33
23 27 31 31 34 37 41 42 44 44 47 54 44 38 39 39 40 45 47 46 47 50 52 42 35 39 42 32 29 25 20 19 26 36 40 42 36 33
28 29 28 32 37 40 43 42 40 36 39 48 47 46 40 44 49 53 45 48 53 58 48 42 46 51 40 23 22 17 19 22 31 41 43 42 36 32
24 27 30 34 37 42 41 37 37 37 31 38 46 47 56 56 56 49 58 51 51 56 47 52 57 46 30 19 20 21 20 28 32 41 45 43 36 32
23 27 28 35 38 39 37 39 42 43 42 42 48 58 57 56 57 63 60 62 63 57 62 46 44 37 19 13 16 17 20 29 31 44 49 42 36 32
21 26 34 38 37 38 39 43 45 45 46 48 49 53 56 65 68 67 66 66 63 65 56 48 49 39 24 18 18 18 25 24 37 47 45 40 37 29
22 30 38 39 38 37 38 37 40 43 42 42 45 52 56 59 58 62 65 70 69 59 56 51 49 41 32 24 17 18 16 30 44 44 48 44 32 21
26 34 41 40 37 38 43 40 42 45 36 39 44 44 51 52 54 56 57 56 59 47 49 48 58 49 30 17 27 22 27 34 44 42 46 39 23 10
21 35 40 39 41 44 45 48 46 47 43 42 41 41 43 46 46 46 48 51 49 36 42 49 59 47 26 34 29 28 29 38 41 41 35 28 15 1
25 34 35 39 42 46 52 52 51 44 38 36 34 35 37 37 39 40 40 50 52 42 42 48 58 62 41 39 33 35 28 37 28 28 24 21 12 2
25 31 35 39 44 49 50 57 59 56 49 45 40 35 34 32 32 33 37 42 43 37 40 50 49 59 38 53 46 54 51 41 38 37 13 13 12 10
29 31 34 40 46 45 48 53 57 52 47 44 45 44 41 36 32 29 34 34 36 36 32 37 44 43 44 62 49 49 57 48 40 44 22 9 9 10
26 26 30 35 38 41 45 47 50 49 47 47 49 50 49 46 37 30 31 31 28 32 27 27 42 46 51 46 50 54 53 52 43 37 18 18 15 11
23 25 26 30 35 38 44 47 52 54 54 51 50 48 48 44 40 36 34 34 26 24 28 27 34 40 37 43 43 49 54 42 38 34 25 19 18 14
26 26 26 30 32 37 43 50 57 59 57 53 50 47 43 43 43 42 41 41 36 23 19 28 29 35 26 25 34 36 40 31 20 16 24 28 22 10
25 28 34 37 41 46 50 55 55 59 61 56 53 53 50 48 48 44 43 40 40 42 38 30 27 30 25 24 29 26 34 21 18 12 8 14 24 15
29 38 42 46 50 52 54 57 59 59 62 62 57 53 52 50 52 47 45 43 42 41 37 35 39 40 33 26 18 24 28 22 12 4 2 6 11 12
39 41 43 46 49 51 52 54 57 57 57 61 64 59 53 51 54 49 46 45 45 44 38 36 36 38 41 37 21 26 27 22 14 5 10 6 9 15
39 43 46 47 49 51 51 52 54 57 58 60 63 66 61 57 57 54 50 49 48 47 39 36 34 35 36 32 27 24 23 24 17 14 14 11 10 15
40 42 44 46 49 50 50 49 51 56 59 59 61 68 66 63 61 56 52 48 47 47 43 36 33 32 33 26 23 23 23 23 24 16 16 12 11 9
36 41 43 45 49 51 51 51 51 55 58 64 62 65 70 69 67 60 52 48 47 44 42 34 28 31 36 34 31 26 27 22 24 23 13 11 8 7
38 39 43 46 49 50 51 52 52 54 56 58 63 65 72 78 70 60 52 45 44 43 40 37 31 27 30 32 31 30 26 24 22 19 23 9 6 6
Wind_Direction_500mb
346 342 344 340 338 339 337 336 341 333 324 314 321 323 325 326 319 322 322 319 319 320 320 317 317 318 323 321 310 309 307 308 319 322 322 318 314 291
341 337 341 341 339 340 340 338 335 328 311 310 317 319 325 319 318 316 318 318 323 331 332 328 324 327 334 336 338 325 318 324 323 323 321 319 312 303
330 338 342 340 343 340 340 340 332 326 321 321 334 340 340 334 327 331 332 337 348 346 343 338 329 331 334 332 336 335 333 333 331 326 319 318 315 302
337 339 340 342 337 340 339 340 336 335 336 333 342 343 342 340 338 337 343 352 353 344 346 338 328 319 321 322 320 320 327 328 324 325 322 322 315 301
344 340 341 340 343 348 346 346 343 342 341 332 338 339 337 340 341 345 348 351 348 342 345 337 330 322 315 303 309 312 316 324 324 323 327 323 316 301
348 351 358 357 355 357 358 351 347 344 341 340 332 330 338 346 344 343 346 348 347 345 350 352 359 357 338 314 290 314 321 326 326 322 326 323 317 300
30 25 20 7 10 8 1 355 347 339 332 329 333 335 341 344 344 344 344 344 348 350 351 1 354 352 343 333 315 307 322 332 330 327 330 327 319 297
28 20 14 12 13 13 8 0 355 342 337 338 341 332 337 340 342 342 343 347 348 351 344 6 359 353 349 25 8 332 342 334 334 331 331 329 320 294
22 11 12 17 16 16 9 1 355 359 350 345 342 342 341 342 340 341 342 344 347 350 357 8 5 14 28 22 17 3 343 334 333 333 331 332 325 294
11 11 19 18 15 9 5 6 2 355 358 355 348 342 340 337 335 338 340 346 353 5 8 5 8 9 20 12 16 6 345 338 336 335 338 342 343 269
20 23 23 15 13 2 358 358 3 6 5 4 355 345 341 338 336 340 348 349 352 2 4 356 1 2 30 33 18 9 354 345 351 347 342 349 7 61
27 31 26 21 13 4 2 2 4 6 4 3 2 356 347 351 350 349 350 349 349 350 353 350 5 358 346 7 17 13 11 14 10 359 16 13 32 34
43 39 28 19 11 10 11 9 7 3 6 8 8 4 4 4 360 354 352 348 346 344 352 342 351 355 345 340 356 5 2 0 6 2 51 52 56 67
44 29 20 12 12 12 12 11 10 9 11 14 14 12 10 10 8 357 351 350 337 332 340 327 320 332 332 331 339 348 359 358 1 348 28 79 65 81
33 20 12 12 14 15 13 15 18 17 15 15 14 14 14 10 5 357 356 354 0 359 343 337 334 341 329 333 327 341 342 356 358 3 37 51 59 75
33 29 24 22 21 19 20 22 24 23 19 16 13 13 14 14 11 2 358 359 354 349 340 350 349 338 342 340 328 332 340 347 5 4 43 61 53 84
29 33 31 27 25 24 24 24 25 23 21 17 12 8 11 10 11 3 5 8 11 5 360 350 341 344 334 325 324 337 341 1 14 23 43 46 42 98
31 35 32 29 27 24 22 23 22 21 20 18 17 12 9 7 10 8 10 13 11 7 1 1 1 2 9 6 358 353 354 355 11 65 124 61 49 88
40 39 34 30 28 26 25 23 22 22 21 19 18 16 10 13 15 7 7 8 7 7 15 11 9 5 1 357 350 355 3 9 5 140 154 163 88 79
38 35 33 30 27 26 24 22 22 21 22 21 21 20 15 15 15 8 7 7 8 11 15 18 16 13 6 351 343 6 11 21 32 101 144 168 124 99
38 34 33 30 28 26 24 22 23 23 22 20 23 23 21 14 17 11 6 10 12 14 16 21 25 28 22 18 19 20 26 33 45 84 117 141 142 120
36 31 31 30 29 26 22 21 23 24 22 20 20 21 24 21 15 12 10 9 14 15 19 24 30 38 34 29 29 32 36 46 50 61 118 129 157 155
31 26 27 28 28 25 23 22 22 24 24 22 20 20 21 26 17 15 13 16 20 22 19 25 33 31 42 42 41 40 38 40 52 57 68 116 153 152
Wind_Speed_850mb
18 22 23 22 27 31 31 32 34 32 53 33 60 60 61 46 36 37 38 45 53 64 64 62 54 41 40 45 42 39 36 32 31 32 31 33 34 31
20 23 25 28 31 33 36 40 37 31 28 56 60 57 44 35 33 42 49 53 54 50 53 51 35 34 42 42 37 28 23 25 27 29 34 37 36 33
23 27 31 31 34 37 41 42 44 44 47 54 44 38 39 39 40 45 47 46 47 50 52 42 35 39 42 32 29 25 20 19 26 36 40 42 36 33
28 29 28 32 37 40 43 42 40 36 39 48 47 46 40 44 49 53 45 48 53 58 48 42 46 51 40 23 22 17 19 22 31 41 43 42 36 32
24 27 30 34 37 42 41 37 37 37 31 38 46 47 56 56 56 49 58 51 51 56 47 52 57 46 30 19 20 21 20 28 32 41 45 43 36 32
23 27 28 35 38 39 37 39 42 43 42 42 48 58 57 56 57 63 60 62 63 57 62 46 44 37 19 13 16 17 20 29 31 44 49 42 36 32
21 26 34 38 37 38 39 43 45 45 46 48 49 53 56 65 68 67 66 66 63 65 56 48 49 39 24 18 18 18 25 24 37 47 45 40 37 29
22 30 38 39 38 37 38 37 40 43 42 42 45 52 56 59 58 62 65 70 69 59 56 51 49 41 32 24 17 18 16 30 44 44 48 44 32 21
26 34 41 40 37 38 43 40 42 45 36 39 44 44 51 52 54 56 57 56 59 47 49 48 58 49 30 17 27 22 27 34 44 42 46 39 23 10
21 35 40 39 41 44 45 48 46 47 43 42 41 41 43 46 46 46 48 51 49 36 42 49 59 47 26 34 29 28 29 38 41 41 35 28 15 1
25 34 35 39 42 46 52 52 51 44 38 36 34 35 37 37 39 40 40 50 52 42 42 48 58 62 41 39 33 35 28 37 28 28 24 21 12 2
25 31 35 39 44 49 50 57 59 56 49 45 40 35 34 32 32 33 37 42 43 37 40 50 49 59 38 53 46 54 51 41 38 37 13 13 12 10
29 31 34 40 46 45 48 53 57 52 47 44 45 44 41 36 32 29 34 34 36 36 32 37 44 43 44 62 49 49 57 48 40 44 22 9 9 10
26 26 30 35 38 41 45 47 50 49 47 47 49 50 49 46 37 30 31 31 28 32 27 27 42 46 51 46 50 54 53 52 43 37 18 18 15 11
23 25 26 30 35 38 44 47 52 54 54 51 50 48 48 44 40 36 34 34 26 24 28 27 34 40 37 43 43 49 54 42 38 34 25 19 18 14
26 26 26 30 32 37 43 50 57 59 57 53 50 47 43 43 43 42 41 41 36 23 19 28 29 35 26 25 34 36 40 31 20 16 24 28 22 10
25 28 34 37 41 46 50 55 55 59 61 56 53 53 50 48 48 44 43 40 40 42 38 30 27 30 25 24 29 26 34 21 18 12 8 14 24 15
29 38 42 46 50 52 54 57 59 59 62 62 57 53 52 50 52 47 45 43 42 41 37 35 39 40 33 26 18 24 28 22 12 4 2 6 11 12
39 41 43 46 49 51 52 54 57 57 57 61 64 59 53 51 54 49 46 45 45 44 38 36 36 38 41 37 21 26 27 22 14 5 10 6 9 15
39 43 46 47 49 51 51 52 54 57 58 60 63 66 61 57 57 54 50 49 48 47 39 36 34 35 36 32 27 24 23 24 17 14 14 11 10 15
40 42 44 46 49 50 50 49 51 56 59 59 61 68 66 63 61 56 52 48 47 47 43 36 33 32 33 26 23 23 23 23 24 16 16 12 11 9
36 41 43 45 49 51 51 51 51 55 58 64 62 65 70 69 67 60 52 48 47 44 42 34 28 31 36 34 31 26 27 22 24 23 13 11 8 7
38 39 43 46 49 50 51 52 52 54 56 58 63 65 72 78 70 60 52 45 44 43 40 37 31 27 30 32 31 30 26 24 22 19 23 9 6 6
Wind_Direction_850mb
346 342 344 340 338 339 337 336 341 333 324 314 321 323 325 326 319 322 322 319 319 320 320 317 317 318 323 321 310 309 307 308 319 322 322 318 314 291
341 337 341 341 339 340 340 338 335 328 311 310 317 319 325 319 318 316 318 318 323 331 332 328 324 327 334 336 338 325 318 324 323 323 321 319 312 303
330 338 342 340 343 340 340 340 332 326 321 321 334 340 340 334 327 331 332 337 348 346 343 338 329 331 334 332 336 335 333 333 331 326 319 318 315 302
337 339 340 342 337 340 339 340 336 335 336 333 342 343 342 340 338 337 343 352 353 344 346 338 328 319 321 322 320 320 327 328 324 325 322 322 315 301
344 340 341 340 343 348 346 346 343 342 341 332 338 339 337 340 341 345 348 351 348 342 345 337 330 322 315 303 309 312 316 324 324 323 327 323 316 301
348 351 358 357 355 357 358 351 347 344 341 340 332 330 338 346 344 343 346 348 347 345 350 352 359 357 338 314 290 314 321 326 326 322 326 323 317 300
30 25 20 7 10 8 1 355 347 339 332 329 333 335 341 344 344 344 344 344 348 350 351 1 354 352 343 333 315 307 322 332 330 327 330 327 319 297
28 20 14 12 13 13 8 0 355 342 337 338 341 332 337 340 342 342 343 347 348 351 344 6 359 353 349 25 8 332 342 334 334 331 331 329 320 294
22 11 12 17 16 16 9 1 355 359 350 345 342 342 341 342 340 341 342 344 347 350 357 8 5 14 28 22 17 3 343 334 333 333 331 332 325 294
11 11 19 18 15 9 5 6 2 355 358 355 348 342 340 337 335 338 340 346 353 5 8 5 8 9 20 12 16 6 345 338 336 335 338 342 343 269
20 23 23 15 13 2 358 358 3 6 5 4 355 345 341 338 336 340 348 349 352 2 4 356 1 2 30 33 18 9 354 345 351 347 342 349 7 61
27 31 26 21 13 4 2 2 4 6 4 3 2 356 347 351 350 349 350 349 349 350 353 350 5 358 346 7 17 13 11 14 10 359 16 13 32 34
43 39 28 19 11 10 11 9 7 3 6 8 8 4 4 4 360 354 352 348 346 344 352 342 351 355 345 340 356 5 2 0 6 2 51 52 56 67
44 29 20 12 12 12 12 11 10 9 11 14 14 12 10 10 8 357 351 350 337 332 340 327 320 332 332 331 339 348 359 358 1 348 28 79 65 81
33 20 12 12 14 15 13 15 18 17 15 15 14 14 14 10 5 357 356 354 0 359 343 337 334 341 329 333 327 341 342 356 358 3 37 51 59 75
33 29 24 22 21 19 20 22 24 23 19 16 13 13 14 14 11 2 358 359 354 349 340 350 349 338 342 340 328 332 340 347 5 4 43 61 53 84
29 33 31 27 25 24 24 24 25 23 21 17 12 8 11 10 11 3 5 8 11 5 360 350 341 344 334 325 324 337 341 1 14 23 43 46 42 98
31 35 32 29 27 24 22 23 22 21 20 18 17 12 9 7 10 8 10 13 11 7 1 1 1 2 9 6 358 353 354 355 11 65 124 61 49 88
40 39 34 30 28 26 25 23 22 22 21 19 18 16 10 13 15 7 7 8 7 7 15 11 9 5 1 357 350 355 3 9 5 140 154 163 88 79
38 35 33 30 27 26 24 22 22 21 22 21 21 20 15 15 15 8 7 7 8 11 15 18 16 13 6 351 343 6 11 21 32 101 144 168 124 99
38 34 33 30 28 26 24 22 23 23 22 20 23 23 21 14 17 11 6 10 12 14 16 21 25 28 22 18 19 20 26 33 45 84 117 141 142 120
36 31 31 30 29 26 22 21 23 24 22 20 20 21 24 21 15 12 10 9 14 15 19 24 30 38 34 29 29 32 36 46 50 61 118 129 157 155
31 26 27 28 28 25 23 22 22 24 24 22 20 20 21 26 17 15 13 16 20 22 19 25 33 31 42 42 41 40 38 40 52 57 68 116 153 152